TITAN 4B DEB, 40528

Orbit data source: Space-Track

TITAN 4B DEB, 40528 is space debris in LEO originally from a launch on Thu, 17 Aug 2000 UTC launched from the Air Force Western Test Range (AFWTR). Debris objects in space refer to the collection of defunct objects orbiting the Earth. Examples of debris include non-operational satellites, rocket bodies, and fragments generated from explosions, collisions, or faulty payload assembly.

Loading next visibility...
Identifier
40528, 2000-047E
Orbit
LEO
Country
Flag of USUS
Related business
Manufacturer
LMSS Denver
Mission
Spacecraft
Bus & Motor
Unknown
Mass
Unknown
Launch date (UTC)
2000-08-17 (26 years ago)
Launch vehicle
Unknown
Launch site
Air Force Western Test Range (AFWTR)
Object type
Payload
Rocket body
Debris
Shape & HBR
Unknown shape, 0.1 m
Radar Cross Section
Small (<0.1 m²)

Expand to show TLE details & history
Last TLE update: 4 days ago

TLE from 4 days ago
0 TITAN 4B DEB
1 40528U 00047E   26169.55749138  .00000240  00000-0  31652-4 0  9993
2 40528  67.9931 214.7606 0059608 322.5506 110.8398 14.95963949612832
Epoch: 2026-06-18T13:22Z
TLE epoch observation values (Epoch: 2026-06-18T13:22:47.255Z)
Latitude
63.15766°
Longitude
159.85411°
Altitude
604.448 km
Speed
7.556 km/s
True Right ascension
17h 49m 24s
True Declination
63° 00' 57"
Sunlit
Object was in daylight at epoch
Visualization orbit readout
Latitude
Unknown
Longitude
Unknown
Altitude
Unknown
Speed
Unknown
Apparent Right ascension
Unknown
Apparent Declination
Unknown
Sunlit
N/A
Visualization observer readout
Local Sidereal Time
21:36:00
Azimuth
Unknown
Elevation
Unknown
Doppler factor
Unknown
Orbital elements
Apogee altitude
619.017 km
Perigee altitude
536.094 km
Semi-major axis
6,955.692 km
Eccentricity
0.00596
Inclination
67.9931°
RAAN
214.7606°
Arg. of periapsis
322.5506°
True anomaly
111.47647°
Mean anomaly
110.8398°
Eccentric anomaly
111.15831°
Mean motion
3.74139 °/min
Orbital period
96.22 mins
BSTAR
0.000031652
Loading maneuver chart data...
Computing Atmospheric mass density...
Loading historical data...
Loading historical data...
Loading historical data...
Loading historical data...
Loading historical data...
Loading historical data...
Loading historical data...
Other satellites on launch #47 in the year 2000 (2000-08-17 UTC)

Documentation

Showing up to 5 results
|